Lihue, HI

11:39 AM HST on June 22, 2017 (GMT -1000)
Lihue

Weather History for PHLI - February, 2014

Change the Weather History Date:

Thursday, February 20, 2014

  Actual Average Record
Temperature  
Mean Temperature 76 °F 72 °F  
Max Temperature 80 °F 78 °F 86 °F (1986)
Min Temperature 72 °F 66 °F 56 °F (1960)
Degree Days  
Heating Degree Days 0 0  
Month to date heating degree days 0 0  
Since 1 July heating degree days 0 0  
Cooling Degree Days 11 7  
Month to date cooling degree days 124 140  
Year to date cooling degree days 320 349  
Growing Degree Days 26 (Base 50)    
Moisture  
Dew Point 71 °F    
Average Humidity 86    
Maximum Humidity 93    
Minimum Humidity 79    
Precipitation  
Precipitation 0.00 in 0.11 in 1.91 in (1989)
Month to date precipitation 7.22 2.21  
Year to date precipitation 8.93 5.96  
Snow  
Snow 0.00 in - - ()
Month to date snowfall 0.0  
Since 1 July snowfall 0.0  
Snow Depth 0.00 in    
Sea Level Pressure  
Sea Level Pressure 29.93 in    
Wind  
Wind Speed 5 mph (SE)    
Max Wind Speed 13 mph    
Max Gust Speed 20 mph    
Visibility 10 miles    
Events      
T = Trace of Precipitation, MM = Missing Value Source: NWS Daily Summary

Daily Weather History Graph

Daily Weather History Graph

Search for Another Location

Airport or City:

Trip Planner

Search our weather history database for the weather conditions in past years. The results will help you decide how hot, cold, wet, or windy it might be!

Date:

Astronomy

Feb. 20, 2014 Rise Set
Actual Time 7:05 AM HST 6:37 PM HST
Civil Twilight 6:42 AM HST 7:00 PM HST
Nautical Twilight 6:16 AM HST 7:26 PM HST
Astronomical Twilight 5:50 AM HST 7:52 PM HST
Moon 11:56 PM HST (2/20) 10:39 AM HST (2/20)
Length of Visible Light 12h 17m
Length of Day
11h 32m
Waning Gibbous, 69% of the Moon is Illuminated
Feb 20
Waning Gibbous
Feb 22
Last Quarter
Feb 28
New
Mar 8
First Quarter
Mar 16
Full

Hourly Weather History & Observations

Time (HST) Temp. Dew Point Humidity Pressure Visibility Wind Dir Wind Speed Gust Speed Precip Events Conditions
12:53 AM 73.0 °F 71.1 °F 93% 29.97 in 10.0 mi SE 3.5 mph - N/A   Mostly Cloudy
1:53 AM 73.0 °F 71.1 °F 93% 29.95 in 10.0 mi Calm Calm - N/A   Overcast
2:31 AM 73.4 °F 71.6 °F 94% 29.95 in 10.0 mi East 5.8 mph - N/A   Overcast
2:53 AM 73.9 °F 71.1 °F 91% 29.94 in 10.0 mi East 5.8 mph - N/A   Mostly Cloudy
3:01 AM 73.4 °F 71.6 °F 94% 29.95 in 10.0 mi ENE 6.9 mph - N/A   Mostly Cloudy
3:39 AM 73.4 °F 71.6 °F 94% 29.94 in 10.0 mi East 6.9 mph - N/A   Partly Cloudy
3:53 AM 73.0 °F 71.1 °F 93% 29.93 in 10.0 mi East 6.9 mph - N/A   Mostly Cloudy
4:30 AM 73.4 °F 71.6 °F 94% 29.93 in 10.0 mi East 5.8 mph - N/A   Mostly Cloudy
4:42 AM 73.4 °F 71.6 °F 94% 29.93 in 10.0 mi East 6.9 mph - N/A   Scattered Clouds
4:53 AM 73.0 °F 70.0 °F 90% 29.91 in 10.0 mi East 12.7 mph - N/A   Partly Cloudy
5:53 AM 73.0 °F 71.1 °F 93% 29.92 in 10.0 mi ESE 6.9 mph - N/A   Scattered Clouds
6:04 AM 73.4 °F 71.6 °F 94% 29.93 in 9.0 mi ESE 4.6 mph - N/A   Mostly Cloudy
6:38 AM 73.4 °F 71.6 °F 94% 29.94 in 8.0 mi ESE 5.8 mph - N/A   Mostly Cloudy
6:53 AM 73.0 °F 71.1 °F 93% 29.93 in 10.0 mi South 3.5 mph - N/A   Mostly Cloudy
6:56 AM 71.6 °F 71.6 °F 100% 29.94 in 10.0 mi Calm Calm - N/A   Mostly Cloudy
7:19 AM 71.6 °F 69.8 °F 94% 29.95 in 10.0 mi Calm Calm - N/A   Scattered Clouds
7:53 AM 73.0 °F 71.1 °F 93% 29.95 in 10.0 mi West 3.5 mph - N/A   Scattered Clouds
8:53 AM 75.0 °F 71.1 °F 87% 29.95 in 10.0 mi Calm Calm - N/A   Scattered Clouds
9:53 AM 77.0 °F 72.0 °F 84% 29.96 in 10.0 mi ENE 3.5 mph - N/A   Clear
10:53 AM 77.0 °F 72.0 °F 84% 29.96 in 10.0 mi ESE 5.8 mph - N/A   Clear
11:53 AM 79.0 °F 73.0 °F 82% 29.94 in 10.0 mi ESE 4.6 mph - N/A   Partly Cloudy
12:53 PM 78.1 °F 71.1 °F 79% 29.93 in 10.0 mi ESE 8.1 mph - N/A   Clear
1:53 PM 78.1 °F 71.1 °F 79% 29.91 in 10.0 mi SSE 10.4 mph - N/A   Clear
2:53 PM 78.1 °F 71.1 °F 79% 29.88 in 10.0 mi SSE 9.2 mph 19.6 mph N/A   Partly Cloudy
3:53 PM 77.0 °F 71.1 °F 82% 29.87 in 10.0 mi South 8.1 mph - N/A   Scattered Clouds
4:53 PM 75.9 °F 71.1 °F 85% 29.88 in 10.0 mi South 6.9 mph - N/A   Scattered Clouds
5:53 PM 75.0 °F 70.0 °F 84% 29.88 in 10.0 mi South 5.8 mph - N/A   Scattered Clouds
6:53 PM 73.9 °F 70.0 °F 87% 29.90 in 10.0 mi SSW 3.5 mph - N/A   Mostly Cloudy
7:48 PM 73.4 °F 71.6 °F 94% 29.91 in 10.0 mi South 4.6 mph - N/A   Scattered Clouds
7:53 PM 73.9 °F 71.1 °F 91% 29.91 in 10.0 mi South 4.6 mph - N/A   Scattered Clouds
8:53 PM 73.0 °F 70.0 °F 90% 29.94 in 10.0 mi SW 4.6 mph - N/A   Clear
9:53 PM 73.9 °F 70.0 °F 87% 29.94 in 10.0 mi Calm Calm - N/A   Clear
10:44 PM 73.4 °F 71.6 °F 94% 29.93 in 10.0 mi Calm Calm - N/A   Mostly Cloudy
10:53 PM 73.9 °F 71.1 °F 91% 29.92 in 10.0 mi SE 3.5 mph - N/A   Mostly Cloudy
11:26 PM 73.4 °F 71.6 °F 94% 29.93 in 8.0 mi Calm Calm - N/A   Partly Cloudy
11:45 PM 73.4 °F 71.6 °F 94% 29.93 in 9.0 mi NNW 4.6 mph - N/A   Mostly Cloudy
11:53 PM 73.0 °F 71.1 °F 93% 29.92 in 10.0 mi WNW 3.5 mph - N/A   Mostly Cloudy